Time,TemperatureF,DewpointF,PressureIn,WindDirection,WindDirectionDegrees,WindSpeedMPH,WindSpeedGustMPH,Humidity,HourlyPrecipIn,Conditions,Clouds,dailyrainin,SolarRadiationWatts/m^2,SoftwareType,DateUTC
2013-10-26 00:00:00,49.0,35.7,29.86,NW,305,5.0,12.0,60,0.00,CLR,CLR,0.00,0.0,WeatherDisplay:10.37,2013-10-26 05:00:00,
2013-10-26 00:05:00,48.7,35.8,29.86,WNW,303,7.0,12.0,61,0.00,CLR,CLR,0.00,0.0,WeatherDisplay:10.37,2013-10-26 05:05:00,
2013-10-26 00:10:00,48.4,35.6,29.86,WNW,303,8.0,15.0,61,0.00,CLR,CLR,0.00,0.0,WeatherDisplay:10.37,2013-10-26 05:10:00,
2013-10-26 00:15:00,48.2,35.4,29.86,NW,315,7.0,15.0,61,0.00,CLR,CLR,0.00,0.0,WeatherDisplay:10.37,2013-10-26 05:15:00,
2013-10-26 00:20:00,47.9,35.1,29.87,NW,316,7.0,13.0,61,0.00,CLR,CLR,0.00,0.0,WeatherDisplay:10.37,2013-10-26 05:20:00,
2013-10-26 00:25:00,47.7,34.9,29.87,NW,305,8.0,15.0,61,0.00,CLR,CLR,0.00,0.0,WeatherDisplay:10.37,2013-10-26 05:25:00,
2013-10-26 00:30:00,47.5,34.7,29.87,WNW,303,5.0,12.0,61,0.00,CLR,CLR,0.00,0.0,WeatherDisplay:10.37,2013-10-26 05:30:00,
2013-10-26 00:35:00,47.3,35.0,29.88,NW,305,7.0,16.0,62,0.00,CLR,CLR,0.00,0.0,WeatherDisplay:10.37,2013-10-26 05:35:00,
2013-10-26 00:40:00,47.1,34.7,29.88,NW,310,7.0,12.0,62,0.00,CLR,CLR,0.00,0.0,WeatherDisplay:10.37,2013-10-26 05:40:00,
2013-10-26 00:45:00,46.8,34.9,29.88,NW,311,5.0,12.0,63,0.00,CLR,CLR,0.00,0.0,WeatherDisplay:10.37,2013-10-26 05:45:00,
2013-10-26 00:50:00,46.5,35.0,29.89,NW,313,6.0,13.0,64,0.00,CLR,CLR,0.00,0.0,WeatherDisplay:10.37,2013-10-26 05:50:00,
2013-10-26 00:55:00,46.3,35.2,29.89,NW,311,6.0,12.0,65,0.00,CLR,CLR,0.00,0.0,WeatherDisplay:10.37,2013-10-26 05:55:00,
2013-10-26 01:00:00,46.1,35.0,29.89,NW,309,6.0,9.0,65,0.00,CLR,CLR,0.00,0.0,WeatherDisplay:10.37,2013-10-26 06:00:00,
2013-10-26 01:05:00,45.9,35.2,29.89,NW,313,6.0,10.0,66,0.00,CLR,CLR,0.00,0.0,WeatherDisplay:10.37,2013-10-26 06:05:00,
2013-10-26 01:10:00,45.8,35.0,29.89,NW,321,8.0,17.0,66,0.00,CLR,CLR,0.00,0.0,WeatherDisplay:10.37,2013-10-26 06:10:00,
2013-10-26 01:15:00,45.6,34.1,29.89,NW,316,7.0,16.0,64,0.00,CLR,CLR,0.00,0.0,WeatherDisplay:10.37,2013-10-26 06:15:00,
2013-10-26 01:20:00,45.4,32.7,29.89,NW,311,9.0,16.0,61,0.00,CLR,CLR,0.00,0.0,WeatherDisplay:10.37,2013-10-26 06:20:00,
2013-10-26 01:25:00,45.2,32.1,29.89,NW,315,8.0,22.0,60,0.00,CLR,CLR,0.00,0.0,WeatherDisplay:10.37,2013-10-26 06:25:00,
2013-10-26 01:30:00,45.0,31.9,29.90,NW,315,7.0,17.0,60,0.00,CLR,CLR,0.00,0.0,WeatherDisplay:10.37,2013-10-26 06:30:00,
2013-10-26 01:35:00,44.9,32.7,29.90,NW,317,5.0,13.0,62,0.00,CLR,CLR,0.00,0.0,WeatherDisplay:10.37,2013-10-26 06:35:00,
2013-10-26 01:40:00,44.7,32.8,29.90,NW,316,3.0,12.0,63,0.00,CLR,CLR,0.00,0.0,WeatherDisplay:10.37,2013-10-26 06:40:00,
2013-10-26 01:45:00,44.5,33.1,29.90,NW,318,8.0,13.0,64,0.00,CLR,CLR,0.00,0.0,WeatherDisplay:10.37,2013-10-26 06:45:00,
2013-10-26 01:50:00,44.3,32.9,29.90,NW,325,5.0,15.0,64,0.00,CLR,CLR,0.00,0.0,WeatherDisplay:10.37,2013-10-26 06:50:00,
2013-10-26 01:55:00,44.1,32.7,29.90,NW,313,5.0,15.0,64,0.00,CLR,CLR,0.00,0.0,WeatherDisplay:10.37,2013-10-26 06:55:00,
2013-10-26 02:00:00,43.8,33.2,29.91,WNW,303,3.0,10.0,66,0.00,CLR,CLR,0.00,0.0,WeatherDisplay:10.37,2013-10-26 07:00:00,
2013-10-26 02:05:00,43.6,32.6,29.91,NW,310,5.0,15.0,65,0.00,CLR,CLR,0.00,0.0,WeatherDisplay:10.37,2013-10-26 07:05:00,
2013-10-26 02:10:00,43.4,32.0,29.91,NW,321,9.0,14.0,64,0.00,CLR,CLR,0.00,0.0,WeatherDisplay:10.37,2013-10-26 07:10:00,
2013-10-26 02:15:00,43.3,31.1,29.91,NW,321,5.0,16.0,62,0.00,CLR,CLR,0.00,0.0,WeatherDisplay:10.37,2013-10-26 07:15:00,
2013-10-26 02:20:00,43.1,30.6,29.91,NW,318,8.0,15.0,61,0.00,CLR,CLR,0.00,0.0,WeatherDisplay:10.37,2013-10-26 07:20:00,
2013-10-26 02:25:00,43.0,30.5,29.91,NW,322,5.0,14.0,61,0.00,CLR,CLR,0.00,0.0,WeatherDisplay:10.37,2013-10-26 07:25:00,
2013-10-26 02:30:00,42.8,30.6,29.91,NW,319,5.0,14.0,62,0.00,CLR,CLR,0.00,0.0,WeatherDisplay:10.37,2013-10-26 07:30:00,
2013-10-26 02:35:00,42.5,30.4,29.92,NW,321,8.0,18.0,62,0.00,CLR,CLR,0.00,0.0,WeatherDisplay:10.37,2013-10-26 07:35:00,
2013-10-26 02:40:00,42.4,30.3,29.92,NW,318,9.0,16.0,62,0.00,CLR,CLR,0.00,0.0,WeatherDisplay:10.37,2013-10-26 07:40:00,
2013-10-26 02:45:00,42.1,30.4,29.92,NW,320,7.0,16.0,63,0.00,CLR,CLR,0.00,0.0,WeatherDisplay:10.37,2013-10-26 07:45:00,
2013-10-26 02:50:00,41.8,30.5,29.92,NW,322,6.0,13.0,64,0.00,CLR,CLR,0.00,0.0,WeatherDisplay:10.37,2013-10-26 07:50:00,
2013-10-26 02:56:00,41.5,30.6,29.92,NNW,339,5.7,9.2,65,0.00,CLR,,0.00,0.0,WeatherDisplay:10.37,2013-10-26 07:56:00,
2013-10-26 03:01:00,41.3,30.8,29.93,NNW,336,7.5,12.0,66,0.00,CLR,,0.00,0.0,WeatherDisplay:10.37,2013-10-26 08:01:00,
2013-10-26 03:06:00,41.1,30.6,29.93,NNW,336,6.6,10.4,66,0.00,CLR,,0.00,0.0,WeatherDisplay:10.37,2013-10-26 08:06:00,
2013-10-26 03:11:00,40.8,30.7,29.93,WNW,296,9.7,16.0,67,0.00,CLR,,0.00,0.0,WeatherDisplay:10.37,2013-10-26 08:11:00,
2013-10-26 03:16:00,40.5,30.4,29.94,NW,306,7.4,12.7,67,0.00,CLR,,0.00,0.0,WeatherDisplay:10.37,2013-10-26 08:16:00,
2013-10-26 03:21:00,40.3,30.6,29.94,WNW,292,7.0,11.0,68,0.00,CLR,,0.00,0.0,WeatherDisplay:10.37,2013-10-26 08:21:00,
2013-10-26 03:26:00,40.1,30.4,29.94,NNW,328,10.2,16.1,68,0.00,CLR,,0.00,0.0,WeatherDisplay:10.37,2013-10-26 08:26:00,
2013-10-26 03:31:00,40.0,30.6,29.94,NW,325,5.6,15.0,69,0.00,CLR,,0.00,0.0,WeatherDisplay:10.37,2013-10-26 08:31:00,
2013-10-26 03:36:00,39.9,30.5,29.95,NW,326,7.4,12.0,69,0.00,CLR,,0.00,0.0,WeatherDisplay:10.37,2013-10-26 08:36:00,
2013-10-26 03:41:00,39.8,30.5,29.95,WNW,291,9.0,15.0,69,0.00,CLR,,0.00,0.0,WeatherDisplay:10.37,2013-10-26 08:41:00,
2013-10-26 03:46:00,39.6,30.6,29.95,NNW,346,10.8,17.3,70,0.00,CLR,,0.00,0.0,WeatherDisplay:10.37,2013-10-26 08:46:00,
2013-10-26 03:51:00,39.4,30.4,29.95,NW,325,7.9,16.1,70,0.00,CLR,,0.00,0.0,WeatherDisplay:10.37,2013-10-26 08:51:00,
2013-10-26 03:56:00,39.2,30.6,29.95,NW,319,7.1,13.0,71,0.00,CLR,,0.00,0.0,WeatherDisplay:10.37,2013-10-26 08:56:00,
2013-10-26 04:01:00,39.0,30.7,29.96,NNW,327,9.0,14.0,72,0.00,CLR,,0.00,0.0,WeatherDisplay:10.37,2013-10-26 09:01:00,
2013-10-26 04:06:00,38.8,30.5,29.96,NW,315,9.6,16.1,72,0.00,CLR,,0.00,0.0,WeatherDisplay:10.37,2013-10-26 09:06:00,
2013-10-26 04:11:00,38.6,30.7,29.96,NW,308,5.9,10.4,73,0.00,CLR,,0.00,0.0,WeatherDisplay:10.37,2013-10-26 09:11:00,
2013-10-26 04:16:00,38.4,30.5,29.96,WNW,293,5.7,10.0,73,0.00,CLR,,0.00,0.0,WeatherDisplay:10.37,2013-10-26 09:16:00,
2013-10-26 04:21:00,38.3,30.7,29.97,NNW,337,7.9,12.0,74,0.00,CLR,,0.00,0.0,WeatherDisplay:10.37,2013-10-26 09:21:00,
2013-10-26 04:26:00,38.1,30.5,29.97,WNW,292,6.5,17.3,74,0.00,CLR,,0.00,0.0,WeatherDisplay:10.37,2013-10-26 09:26:00,
2013-10-26 04:31:00,37.9,30.7,29.97,WNW,302,11.0,19.6,75,0.00,CLR,,0.00,0.0,WeatherDisplay:10.37,2013-10-26 09:31:00,
2013-10-26 04:36:00,37.8,30.6,29.97,NNW,327,7.1,11.5,75,0.00,CLR,,0.00,0.0,WeatherDisplay:10.37,2013-10-26 09:36:00,
2013-10-26 04:41:00,37.7,30.5,29.97,WNW,302,7.3,14.0,75,0.00,CLR,,0.00,0.0,WeatherDisplay:10.37,2013-10-26 09:41:00,
2013-10-26 04:46:00,37.5,30.6,29.97,NW,322,11.0,13.0,76,0.00,CLR,,0.00,0.0,WeatherDisplay:10.37,2013-10-26 09:46:00,
2013-10-26 04:51:00,37.5,30.6,29.98,NW,323,7.1,12.0,76,0.00,CLR,,0.00,0.0,WeatherDisplay:10.37,2013-10-26 09:51:00,
2013-10-26 04:56:00,37.4,30.5,29.98,NNW,333,7.0,13.0,76,0.00,CLR,,0.00,0.0,WeatherDisplay:10.37,2013-10-26 09:56:00,
2013-10-26 05:01:00,37.3,30.7,29.98,NW,315,6.7,12.7,77,0.00,CLR,,0.00,0.0,WeatherDisplay:10.37,2013-10-26 10:01:00,
2013-10-26 05:06:00,37.3,30.7,29.99,WNW,288,6.6,11.0,77,0.00,CLR,,0.00,0.0,WeatherDisplay:10.37,2013-10-26 10:06:00,
2013-10-26 05:11:00,37.2,30.7,29.99,NNW,348,6.1,13.8,77,0.00,CLR,,0.00,0.0,WeatherDisplay:10.37,2013-10-26 10:11:00,
2013-10-26 05:16:00,37.2,30.7,29.99,NW,320,7.4,11.5,77,0.00,CLR,,0.00,0.0,WeatherDisplay:10.37,2013-10-26 10:16:00,
2013-10-26 05:21:00,37.2,30.7,29.99,NNW,336,8.7,14.0,77,0.00,CLR,,0.00,0.0,WeatherDisplay:10.37,2013-10-26 10:21:00,
2013-10-26 05:26:00,37.2,30.7,29.99,WNW,302,7.4,15.0,77,0.00,CLR,,0.00,0.0,WeatherDisplay:10.37,2013-10-26 10:26:00,
2013-10-26 05:31:00,37.2,30.7,30.00,WNW,295,9.3,13.0,77,0.00,CLR,,0.00,0.0,WeatherDisplay:10.37,2013-10-26 10:31:00,
2013-10-26 05:36:00,37.2,30.7,30.00,NNW,343,8.9,15.0,77,0.00,CLR,,0.00,0.0,WeatherDisplay:10.37,2013-10-26 10:36:00,
2013-10-26 05:41:00,37.1,30.6,30.00,NW,325,7.0,12.7,77,0.00,CLR,,0.00,0.0,WeatherDisplay:10.37,2013-10-26 10:41:00,
2013-10-26 05:46:00,37.1,30.6,30.01,NNW,332,5.7,10.0,77,0.00,CLR,,0.00,0.0,WeatherDisplay:10.37,2013-10-26 10:46:00,
2013-10-26 05:51:00,37.1,30.6,30.01,NW,317,6.8,10.4,77,0.00,CLR,,0.00,0.0,WeatherDisplay:10.37,2013-10-26 10:51:00,
2013-10-26 05:56:00,37.0,30.5,30.01,NW,314,7.7,12.0,77,0.00,CLR,,0.00,0.0,WeatherDisplay:10.37,2013-10-26 10:56:00,
2013-10-26 06:01:00,36.9,30.4,30.01,NW,314,7.4,13.8,77,0.00,CLR,,0.00,0.0,WeatherDisplay:10.37,2013-10-26 11:01:00,
2013-10-26 06:06:00,36.8,30.3,30.01,WNW,289,7.5,11.5,77,0.00,CLR,,0.00,0.0,WeatherDisplay:10.37,2013-10-26 11:06:00,
2013-10-26 06:11:00,36.7,30.2,30.02,WNW,284,6.4,14.0,77,0.00,CLR,,0.00,0.0,WeatherDisplay:10.37,2013-10-26 11:11:00,
2013-10-26 06:16:00,36.7,30.2,30.02,NW,304,7.3,11.5,77,0.00,CLR,,0.00,0.0,WeatherDisplay:10.37,2013-10-26 11:16:00,
2013-10-26 06:21:00,36.8,30.3,30.02,WNW,286,6.1,15.0,77,0.00,CLR,,0.00,0.0,WeatherDisplay:10.37,2013-10-26 11:21:00,
2013-10-26 06:26:00,36.7,30.2,30.02,NNW,332,5.5,13.8,77,0.00,CLR,,0.00,0.0,WeatherDisplay:10.37,2013-10-26 11:26:00,
2013-10-26 06:31:00,36.7,29.8,30.02,WNW,300,7.9,11.5,76,0.00,CLR,,0.00,0.0,WeatherDisplay:10.37,2013-10-26 11:31:00,
2013-10-26 06:36:00,36.7,29.8,30.02,NNW,331,3.6,8.0,76,0.00,CLR,,0.00,0.0,WeatherDisplay:10.37,2013-10-26 11:36:00,
2013-10-26 06:41:00,36.7,29.8,30.02,North,351,8.9,16.0,76,0.00,CLR,,0.00,0.0,WeatherDisplay:10.37,2013-10-26 11:41:00,
2013-10-26 06:46:00,36.8,29.9,30.02,WNW,301,5.0,11.5,76,0.00,CLR,,0.00,0.0,WeatherDisplay:10.37,2013-10-26 11:46:00,
2013-10-26 06:51:00,36.8,29.9,30.03,NNW,347,7.3,10.4,76,0.00,CLR,,0.00,0.0,WeatherDisplay:10.37,2013-10-26 11:51:00,
2013-10-26 06:56:00,36.7,29.8,30.03,WNW,286,5.9,11.0,76,0.00,CLR,,0.00,0.0,WeatherDisplay:10.37,2013-10-26 11:56:00,
2013-10-26 07:01:00,36.7,29.5,30.03,NNW,330,5.7,13.8,75,0.00,CLR,,0.00,0.0,WeatherDisplay:10.37,2013-10-26 12:01:00,
2013-10-26 07:06:00,36.6,29.7,30.03,NW,313,5.3,9.2,76,0.00,CLR,,0.00,0.0,WeatherDisplay:10.37,2013-10-26 12:06:00,
2013-10-26 07:11:00,36.5,29.7,30.03,WNW,293,4.1,10.0,76,0.00,CLR,,0.00,0.0,WeatherDisplay:10.37,2013-10-26 12:11:00,
2013-10-26 07:16:00,36.4,29.6,30.04,West,281,6.0,10.4,76,0.00,CLR,,0.00,0.0,WeatherDisplay:10.37,2013-10-26 12:16:00,
2013-10-26 07:21:00,36.4,29.6,30.04,WNW,302,6.7,11.5,76,0.00,CLR,,0.00,0.0,WeatherDisplay:10.37,2013-10-26 12:21:00,
2013-10-26 07:26:00,36.4,29.6,30.04,NW,315,5.7,10.0,76,0.00,CLR,,0.00,0.0,WeatherDisplay:10.37,2013-10-26 12:26:00,
2013-10-26 07:31:00,36.2,29.4,30.04,WNW,294,4.8,8.1,76,0.00,CLR,,0.00,0.0,WeatherDisplay:10.37,2013-10-26 12:31:00,
2013-10-26 07:36:00,36.2,29.4,30.05,NW,312,5.5,8.1,76,0.00,CLR,,0.00,0.0,WeatherDisplay:10.37,2013-10-26 12:36:00,
2013-10-26 07:41:00,36.2,29.4,30.05,West,273,6.0,10.0,76,0.00,CLR,,0.00,0.0,WeatherDisplay:10.37,2013-10-26 12:41:00,
2013-10-26 07:46:00,36.1,29.3,30.05,NW,308,6.1,10.4,76,0.00,CLR,,0.00,0.0,WeatherDisplay:10.37,2013-10-26 12:46:00,
2013-10-26 07:51:00,36.1,29.6,30.05,WNW,285,8.1,13.0,77,0.00,CLR,,0.00,5.0,WeatherDisplay:10.37,2013-10-26 12:51:00,
2013-10-26 07:56:00,36.1,29.3,30.05,NW,314,6.3,10.0,76,0.00,CLR,,0.00,7.0,WeatherDisplay:10.37,2013-10-26 12:56:00,
2013-10-26 08:02:00,36.1,29.3,30.05,WNW,285,5.0,8.0,76,0.00,CLR,,0.00,9.0,WeatherDisplay:10.37,2013-10-26 13:02:00,
2013-10-26 08:07:00,36.1,29.3,30.05,West,281,3.9,8.0,76,0.00,CLR,,0.00,11.0,WeatherDisplay:10.37,2013-10-26 13:07:00,
2013-10-26 08:12:00,36.1,29.3,30.06,NNE,28,8.2,16.1,76,0.00,CLR,,0.00,12.0,WeatherDisplay:10.37,2013-10-26 13:12:00,
2013-10-26 08:17:00,36.2,29.4,30.06,NNW,339,4.3,10.4,76,0.00,CLR,,0.00,14.0,WeatherDisplay:10.37,2013-10-26 13:17:00,
2013-10-26 08:22:00,36.3,29.5,30.06,NW,324,6.4,9.2,76,0.00,CLR,,0.00,16.0,WeatherDisplay:10.37,2013-10-26 13:22:00,
2013-10-26 08:27:00,36.4,29.6,30.06,WNW,289,6.3,11.0,76,0.00,CLR,,0.00,18.0,WeatherDisplay:10.37,2013-10-26 13:27:00,
2013-10-26 08:32:00,36.4,29.6,30.07,NW,312,5.2,10.0,76,0.00,CLR,,0.00,19.0,WeatherDisplay:10.37,2013-10-26 13:32:00,
2013-10-26 08:37:00,36.6,29.4,30.07,WNW,294,5.1,12.7,75,0.00,CLR,,0.00,19.0,WeatherDisplay:10.37,2013-10-26 13:37:00,
2013-10-26 08:42:00,36.6,29.4,30.07,WNW,303,7.0,10.4,75,0.00,CLR,,0.00,21.0,WeatherDisplay:10.37,2013-10-26 13:42:00,
2013-10-26 08:47:00,36.7,29.5,30.07,NW,317,4.9,10.0,75,0.00,CLR,,0.00,21.0,WeatherDisplay:10.37,2013-10-26 13:47:00,
2013-10-26 08:52:00,36.8,29.6,30.08,NW,315,10.5,16.1,75,0.00,CLR,,0.00,23.0,WeatherDisplay:10.37,2013-10-26 13:52:00,
2013-10-26 08:57:00,37.0,29.8,30.07,NW,315,4.4,8.1,75,0.00,CLR,,0.00,25.0,WeatherDisplay:10.37,2013-10-26 13:57:00,
2013-10-26 09:02:00,37.1,29.9,30.08,NW,313,5.6,11.0,75,0.00,CLR,,0.00,25.0,WeatherDisplay:10.37,2013-10-26 14:02:00,
2013-10-26 09:07:00,37.3,30.1,30.08,NNW,333,8.8,14.0,75,0.00,CLR,,0.00,26.0,WeatherDisplay:10.37,2013-10-26 14:07:00,
2013-10-26 09:12:00,37.4,29.9,30.08,NW,321,7.7,15.0,74,0.00,CLR,,0.00,26.0,WeatherDisplay:10.37,2013-10-26 14:12:00,
2013-10-26 09:18:00,37.7,30.2,30.08,NNW,348,8.2,14.0,74,0.00,CLR,,0.00,28.0,WeatherDisplay:10.37,2013-10-26 14:18:00,
2013-10-26 09:23:00,37.8,30.3,30.08,NW,311,10.1,20.0,74,0.00,CLR,,0.00,30.0,WeatherDisplay:10.37,2013-10-26 14:23:00,
2013-10-26 09:28:00,37.9,30.0,30.08,NW,311,10.7,18.4,73,0.00,CLR,,0.00,42.0,WeatherDisplay:10.37,2013-10-26 14:28:00,
2013-10-26 09:33:00,38.0,30.1,30.09,NNW,331,9.5,15.0,73,0.00,CLR,,0.00,65.0,WeatherDisplay:10.37,2013-10-26 14:33:00,
2013-10-26 09:38:00,38.3,30.1,30.09,NW,311,8.1,13.8,72,0.00,CLR,,0.00,236.0,WeatherDisplay:10.37,2013-10-26 14:38:00,
2013-10-26 09:43:00,38.6,30.4,30.09,North,11,9.3,13.8,72,0.00,CLR,,0.00,253.0,WeatherDisplay:10.37,2013-10-26 14:43:00,
2013-10-26 09:48:00,38.8,30.2,30.09,West,270,6.7,16.1,71,0.00,CLR,,0.00,267.0,WeatherDisplay:10.37,2013-10-26 14:48:00,
2013-10-26 09:53:00,39.1,30.5,30.09,NW,325,6.7,13.8,71,0.00,CLR,,0.00,279.0,WeatherDisplay:10.37,2013-10-26 14:53:00,
2013-10-26 09:58:00,39.4,30.8,30.09,WNW,299,9.1,13.0,71,0.00,CLR,,0.00,304.0,WeatherDisplay:10.37,2013-10-26 14:58:00,
2013-10-26 10:03:00,39.6,30.6,30.09,WNW,302,8.2,16.0,70,0.00,CLR,,0.00,279.0,WeatherDisplay:10.37,2013-10-26 15:03:00,
2013-10-26 10:08:00,39.7,30.7,30.09,NW,304,7.0,12.0,70,0.00,CLR,,0.00,274.0,WeatherDisplay:10.37,2013-10-26 15:08:00,
2013-10-26 10:13:00,39.7,30.7,30.10,NNW,329,8.3,14.0,70,0.00,CLR,,0.00,322.0,WeatherDisplay:10.37,2013-10-26 15:13:00,
2013-10-26 10:18:00,40.0,31.0,30.10,NW,319,8.6,13.8,70,0.00,CLR,,0.00,345.0,WeatherDisplay:10.37,2013-10-26 15:18:00,
2013-10-26 10:23:00,40.1,30.7,30.10,NW,306,5.3,15.0,69,0.00,CLR,,0.00,353.0,WeatherDisplay:10.37,2013-10-26 15:23:00,
2013-10-26 10:28:00,40.4,31.0,30.10,WNW,291,10.2,21.0,69,0.00,CLR,,0.00,373.0,WeatherDisplay:10.37,2013-10-26 15:28:00,
2013-10-26 10:33:00,40.5,31.1,30.11,WNW,298,6.9,15.0,69,0.00,CLR,,0.00,360.0,WeatherDisplay:10.37,2013-10-26 15:33:00,
2013-10-26 10:38:00,40.6,31.2,30.11,North,5,6.2,10.4,69,0.00,CLR,,0.00,413.0,WeatherDisplay:10.37,2013-10-26 15:38:00,
2013-10-26 10:43:00,41.1,31.3,30.11,North,355,7.6,12.7,68,0.00,CLR,,0.00,445.0,WeatherDisplay:10.37,2013-10-26 15:43:00,
2013-10-26 10:48:00,41.3,31.5,30.11,NNW,329,8.7,14.0,68,0.00,CLR,,0.00,445.0,WeatherDisplay:10.37,2013-10-26 15:48:00,
2013-10-26 10:53:00,41.2,31.4,30.11,WNW,292,5.4,13.0,68,0.00,CLR,,0.00,113.0,WeatherDisplay:10.37,2013-10-26 15:53:00,
2013-10-26 10:58:00,41.4,31.3,30.11,WNW,294,7.4,15.0,67,0.00,CLR,,0.00,413.0,WeatherDisplay:10.37,2013-10-26 15:58:00,
2013-10-26 11:03:00,41.9,31.7,30.11,NW,306,9.4,13.0,67,0.00,CLR,,0.00,338.0,WeatherDisplay:10.37,2013-10-26 16:03:00,
2013-10-26 11:08:00,42.0,31.5,30.11,NW,315,8.2,15.0,66,0.00,CLR,,0.00,381.0,WeatherDisplay:10.37,2013-10-26 16:08:00,
2013-10-26 11:13:00,42.1,31.6,30.12,WNW,293,9.5,16.1,66,0.00,CLR,,0.00,494.0,WeatherDisplay:10.37,2013-10-26 16:13:00,
2013-10-26 11:18:00,42.4,31.8,30.12,WNW,291,3.5,9.2,66,0.00,CLR,,0.00,469.0,WeatherDisplay:10.37,2013-10-26 16:18:00,
2013-10-26 11:23:00,42.7,31.7,30.13,NNW,340,8.8,15.0,65,0.00,CLR,,0.00,585.0,WeatherDisplay:10.37,2013-10-26 16:23:00,
2013-10-26 11:28:00,42.7,31.7,30.13,NW,323,5.2,10.4,65,0.00,CLR,,0.00,243.0,WeatherDisplay:10.37,2013-10-26 16:28:00,
2013-10-26 11:33:00,42.8,31.8,30.12,WNW,288,6.5,12.7,65,0.00,CLR,,0.00,264.0,WeatherDisplay:10.37,2013-10-26 16:33:00,
2013-10-26 11:38:00,42.8,31.8,30.13,NW,321,8.5,13.0,65,0.00,CLR,,0.00,343.0,WeatherDisplay:10.37,2013-10-26 16:38:00,
2013-10-26 11:43:00,43.1,32.1,30.12,North,360,6.5,11.5,65,0.00,CLR,,0.00,343.0,WeatherDisplay:10.37,2013-10-26 16:43:00,
2013-10-26 11:48:00,43.6,32.2,30.12,NNE,18,3.7,10.4,64,0.00,CLR,,0.00,626.0,WeatherDisplay:10.37,2013-10-26 16:48:00,
2013-10-26 11:53:00,43.8,32.4,30.13,WNW,301,5.6,8.0,64,0.00,CLR,,0.00,234.0,WeatherDisplay:10.37,2013-10-26 16:53:00,
2013-10-26 11:58:00,43.7,31.9,30.13,West,270,6.6,10.4,63,0.00,CLR,,0.00,211.0,WeatherDisplay:10.37,2013-10-26 16:58:00,
2013-10-26 12:03:00,43.4,31.6,30.13,NNW,344,7.4,14.0,63,0.00,BKN,,0.00,248.0,WeatherDisplay:10.37,2013-10-26 17:03:00,
2013-10-26 12:08:00,43.1,31.7,30.13,WNW,302,6.3,10.4,64,0.00,BKN,,0.00,258.0,WeatherDisplay:10.37,2013-10-26 17:08:00,
2013-10-26 12:13:00,43.0,31.6,30.13,WNW,301,8.8,12.0,64,0.00,BKN,,0.00,211.0,WeatherDisplay:10.37,2013-10-26 17:13:00,
2013-10-26 12:18:00,43.2,32.2,30.13,WNW,286,6.9,10.4,65,0.00,BKN,,0.00,243.0,WeatherDisplay:10.37,2013-10-26 17:18:00,
2013-10-26 12:23:00,43.6,32.2,30.13,WNW,301,5.6,9.2,64,0.00,BKN,,0.00,260.0,WeatherDisplay:10.37,2013-10-26 17:23:00,
2013-10-26 12:28:00,43.8,32.0,30.14,NW,323,7.9,12.7,63,0.00,BKN,,0.00,309.0,WeatherDisplay:10.37,2013-10-26 17:28:00,
2013-10-26 12:33:00,43.8,32.0,30.13,NW,317,6.7,9.2,63,0.00,BKN,,0.00,315.0,WeatherDisplay:10.37,2013-10-26 17:33:00,
2013-10-26 12:38:00,44.1,32.3,30.13,NNE,16,6.4,9.2,63,0.00,BKN,,0.00,209.0,WeatherDisplay:10.37,2013-10-26 17:38:00,
2013-10-26 12:43:00,44.2,32.0,30.13,West,280,8.6,15.0,62,0.00,BKN,,0.00,279.0,WeatherDisplay:10.37,2013-10-26 17:43:00,
2013-10-26 12:48:00,44.6,32.0,30.13,NW,314,10.4,15.0,61,0.00,BKN,,0.00,510.0,WeatherDisplay:10.37,2013-10-26 17:48:00,
2013-10-26 12:53:00,44.7,32.1,30.13,NW,315,6.7,10.4,61,0.00,BKN,,0.00,598.0,WeatherDisplay:10.37,2013-10-26 17:53:00,
2013-10-26 12:58:00,44.8,31.8,30.13,NW,317,5.6,10.4,60,0.00,BKN,,0.00,160.0,WeatherDisplay:10.37,2013-10-26 17:58:00,
2013-10-26 13:03:00,44.9,31.8,30.13,NW,326,4.0,10.4,60,0.00,BKN,,0.00,557.0,WeatherDisplay:10.37,2013-10-26 18:03:00,
2013-10-26 13:08:00,45.2,31.7,30.13,NW,320,4.9,13.0,59,0.00,BKN,,0.00,492.0,WeatherDisplay:10.37,2013-10-26 18:08:00,
2013-10-26 13:13:00,45.1,32.0,30.13,WNW,296,5.3,9.2,60,0.00,BKN,,0.00,153.0,WeatherDisplay:10.37,2013-10-26 18:13:00,
2013-10-26 13:18:00,45.0,31.9,30.13,NW,322,6.8,13.0,60,0.00,BKN,,0.00,239.0,WeatherDisplay:10.37,2013-10-26 18:18:00,
2013-10-26 13:23:00,44.7,32.1,30.12,NNW,331,6.3,10.0,61,0.00,BKN,,0.00,185.0,WeatherDisplay:10.37,2013-10-26 18:23:00,
2013-10-26 13:28:00,44.5,32.3,30.12,NW,305,4.1,8.0,62,0.00,BKN,,0.00,229.0,WeatherDisplay:10.37,2013-10-26 18:28:00,
2013-10-26 13:33:00,44.4,31.8,30.12,NW,313,7.2,12.0,61,0.00,BKN,,0.00,223.0,WeatherDisplay:10.37,2013-10-26 18:33:00,
2013-10-26 13:38:00,44.6,32.0,30.12,NW,309,6.9,12.0,61,0.00,BKN,,0.00,260.0,WeatherDisplay:10.37,2013-10-26 18:38:00,
2013-10-26 13:43:00,44.7,32.1,30.13,WNW,300,7.1,12.0,61,0.00,BKN,,0.00,325.0,WeatherDisplay:10.37,2013-10-26 18:43:00,
2013-10-26 13:48:00,44.9,31.8,30.12,WNW,284,6.3,11.5,60,0.00,BKN,,0.00,213.0,WeatherDisplay:10.37,2013-10-26 18:48:00,
2013-10-26 13:53:00,44.9,31.8,30.13,NNW,335,6.3,15.0,60,0.00,BKN,,0.00,566.0,WeatherDisplay:10.37,2013-10-26 18:53:00,
2013-10-26 13:58:00,45.0,32.3,30.13,NW,313,4.0,6.0,61,0.00,BKN,,0.00,267.0,WeatherDisplay:10.37,2013-10-26 18:58:00,
2013-10-26 14:03:00,45.2,32.1,30.13,NW,310,7.4,13.0,60,0.00,OVC,,0.00,322.0,WeatherDisplay:10.37,2013-10-26 19:03:00,
2013-10-26 14:08:00,45.6,32.5,30.12,West,272,2.6,5.0,60,0.00,OVC,,0.00,251.0,WeatherDisplay:10.37,2013-10-26 19:08:00,
2013-10-26 14:13:00,45.7,32.2,30.12,WNW,301,8.8,16.1,59,0.00,OVC,,0.00,190.0,WeatherDisplay:10.37,2013-10-26 19:13:00,
2013-10-26 14:18:00,45.4,31.9,30.13,NW,306,5.6,9.2,59,0.00,OVC,,0.00,209.0,WeatherDisplay:10.37,2013-10-26 19:18:00,
2013-10-26 14:23:00,45.1,32.0,30.13,WNW,283,7.5,12.0,60,0.00,OVC,,0.00,171.0,WeatherDisplay:10.37,2013-10-26 19:23:00,
2013-10-26 14:28:00,44.8,31.8,30.13,NW,325,6.0,11.5,60,0.00,OVC,,0.00,204.0,WeatherDisplay:10.37,2013-10-26 19:28:00,
2013-10-26 14:33:00,44.7,32.1,30.13,WNW,295,7.8,11.5,61,0.00,OVC,,0.00,251.0,WeatherDisplay:10.37,2013-10-26 19:33:00,
2013-10-26 14:38:00,44.6,32.0,30.13,WNW,284,6.1,10.0,61,0.00,OVC,,0.00,218.0,WeatherDisplay:10.37,2013-10-26 19:38:00,
2013-10-26 14:43:00,44.6,31.6,30.12,WNW,302,6.9,11.0,60,0.00,OVC,,0.00,197.0,WeatherDisplay:10.37,2013-10-26 19:43:00,
2013-10-26 14:48:00,44.5,31.5,30.13,North,5,7.1,12.0,60,0.00,OVC,,0.00,185.0,WeatherDisplay:10.37,2013-10-26 19:48:00,
2013-10-26 14:53:00,44.6,32.0,30.13,NW,311,2.4,4.0,61,0.00,OVC,,0.00,188.0,WeatherDisplay:10.37,2013-10-26 19:53:00,
2013-10-26 14:58:00,44.7,31.7,30.13,North,5,7.0,13.8,60,0.00,OVC,,0.00,160.0,WeatherDisplay:10.37,2013-10-26 19:58:00,
2013-10-26 15:03:00,44.3,31.3,30.13,NNW,332,6.9,11.0,60,0.00,OVC,,0.00,181.0,WeatherDisplay:10.37,2013-10-26 20:03:00,
2013-10-26 15:08:00,44.2,32.0,30.13,WNW,287,5.4,11.5,62,0.00,OVC,,0.00,120.0,WeatherDisplay:10.37,2013-10-26 20:08:00,
2013-10-26 15:13:00,44.0,31.8,30.14,NW,304,4.0,8.0,62,0.00,OVC,,0.00,102.0,WeatherDisplay:10.37,2013-10-26 20:13:00,
2013-10-26 15:18:00,43.8,32.0,30.14,NNW,328,6.4,10.0,63,0.00,OVC,,0.00,113.0,WeatherDisplay:10.37,2013-10-26 20:18:00,
2013-10-26 15:23:00,43.5,31.7,30.14,West,273,5.6,10.4,63,0.00,OVC,,0.00,93.0,WeatherDisplay:10.37,2013-10-26 20:23:00,
2013-10-26 15:28:00,43.3,30.7,30.14,North,360,7.1,15.0,61,0.00,OVC,,0.00,105.0,WeatherDisplay:10.37,2013-10-26 20:28:00,
2013-10-26 15:33:00,43.2,31.1,30.13,North,355,6.2,10.4,62,0.00,OVC,,0.00,104.0,WeatherDisplay:10.37,2013-10-26 20:33:00,
2013-10-26 15:38:00,43.1,31.0,30.13,NNW,327,6.1,11.0,62,0.00,OVC,,0.00,93.0,WeatherDisplay:10.37,2013-10-26 20:38:00,
2013-10-26 15:43:00,43.0,30.9,30.13,NNW,338,4.1,9.2,62,0.00,OVC,,0.00,74.0,WeatherDisplay:10.37,2013-10-26 20:43:00,
2013-10-26 15:48:00,42.9,31.6,30.13,NW,319,5.7,8.1,64,0.00,OVC,,0.00,74.0,WeatherDisplay:10.37,2013-10-26 20:48:00,
2013-10-26 15:53:00,42.7,31.4,30.13,WNW,294,4.7,11.5,64,0.00,OVC,,0.00,77.0,WeatherDisplay:10.37,2013-10-26 20:53:00,
2013-10-26 15:58:00,42.7,31.4,30.14,WNW,294,4.9,7.0,64,0.00,OVC,,0.00,67.0,WeatherDisplay:10.37,2013-10-26 20:58:00,
2013-10-26 16:03:00,42.5,31.2,30.13,WNW,290,6.8,9.2,64,0.00,OVC,,0.00,69.0,WeatherDisplay:10.37,2013-10-26 21:03:00,
2013-10-26 16:08:00,42.5,31.2,30.13,NNW,334,3.9,6.0,64,0.00,OVC,,0.00,86.0,WeatherDisplay:10.37,2013-10-26 21:08:00,
2013-10-26 16:13:00,42.7,31.0,30.13,NW,309,5.6,11.5,63,0.00,OVC,,0.00,88.0,WeatherDisplay:10.37,2013-10-26 21:13:00,
2013-10-26 16:18:00,42.7,30.6,30.13,WNW,294,6.7,11.5,62,0.00,OVC,,0.00,70.0,WeatherDisplay:10.37,2013-10-26 21:18:00,
2013-10-26 16:23:00,42.6,30.9,30.14,NW,315,4.5,12.0,63,0.00,OVC,,0.00,56.0,WeatherDisplay:10.37,2013-10-26 21:23:00,
2013-10-26 16:28:00,42.6,30.9,30.14,NW,319,3.9,5.0,63,0.00,OVC,,0.00,47.0,WeatherDisplay:10.37,2013-10-26 21:28:00,
2013-10-26 16:33:00,42.7,31.0,30.13,NW,307,3.4,5.8,63,0.00,OVC,,0.00,51.0,WeatherDisplay:10.37,2013-10-26 21:33:00,
2013-10-26 16:38:00,42.7,30.6,30.13,WNW,294,3.7,9.2,62,0.00,OVC,,0.00,56.0,WeatherDisplay:10.37,2013-10-26 21:38:00,
2013-10-26 16:43:00,42.6,30.5,30.13,NW,323,4.0,6.9,62,0.00,OVC,,0.00,54.0,WeatherDisplay:10.37,2013-10-26 21:43:00,
2013-10-26 16:48:00,42.6,30.5,30.13,NW,315,4.7,11.0,62,0.00,OVC,,0.00,47.0,WeatherDisplay:10.37,2013-10-26 21:48:00,
2013-10-26 16:53:00,42.6,30.1,30.13,WNW,290,7.1,11.5,61,0.00,OVC,,0.00,46.0,WeatherDisplay:10.37,2013-10-26 21:53:00,
2013-10-26 16:58:00,42.5,30.4,30.13,NW,306,5.1,9.2,62,0.00,OVC,,0.00,28.0,WeatherDisplay:10.37,2013-10-26 21:58:00,
2013-10-26 17:03:00,42.5,30.4,30.13,West,278,4.6,6.9,62,0.00,OVC,,0.00,35.0,WeatherDisplay:10.37,2013-10-26 22:03:00,
2013-10-26 17:08:00,42.5,30.8,30.13,WSW,249,2.7,6.9,63,0.00,OVC,,0.00,42.0,WeatherDisplay:10.37,2013-10-26 22:08:00,
2013-10-26 17:13:00,42.5,30.4,30.13,NW,317,5.8,10.0,62,0.00,OVC,,0.00,40.0,WeatherDisplay:10.37,2013-10-26 22:13:00,
2013-10-26 17:18:00,42.5,30.4,30.13,NW,326,5.7,11.5,62,0.00,OVC,,0.00,32.0,WeatherDisplay:10.37,2013-10-26 22:18:00,
2013-10-26 17:23:00,42.3,30.6,30.13,WNW,292,6.4,9.2,63,0.00,OVC,,0.00,30.0,WeatherDisplay:10.37,2013-10-26 22:23:00,
2013-10-26 17:28:00,42.3,30.6,30.12,NW,321,2.1,3.5,63,0.00,OVC,,0.00,25.0,WeatherDisplay:10.37,2013-10-26 22:28:00,
2013-10-26 17:33:00,42.4,30.7,30.12,NW,320,3.3,5.0,63,0.00,OVC,,0.00,18.0,WeatherDisplay:10.37,2013-10-26 22:33:00,
2013-10-26 17:38:00,42.4,30.7,30.12,North,10,3.8,6.0,63,0.00,OVC,,0.00,14.0,WeatherDisplay:10.37,2013-10-26 22:38:00,
2013-10-26 17:43:00,42.4,30.7,30.12,NNW,333,1.2,5.8,63,0.00,OVC,,0.00,14.0,WeatherDisplay:10.37,2013-10-26 22:43:00,
2013-10-26 17:48:00,42.2,30.5,30.12,NNW,330,6.8,9.2,63,0.00,OVC,,0.00,12.0,WeatherDisplay:10.37,2013-10-26 22:48:00,
2013-10-26 17:53:00,42.2,30.9,30.12,NW,311,2.8,5.0,64,0.00,OVC,,0.00,11.0,WeatherDisplay:10.37,2013-10-26 22:53:00,
2013-10-26 17:58:00,42.1,30.8,30.11,NW,319,2.5,4.0,64,0.00,OVC,,0.00,9.0,WeatherDisplay:10.37,2013-10-26 22:58:00,
2013-10-26 18:03:00,42.0,30.7,30.11,NW,315,2.4,6.0,64,0.00,OVC,,0.00,5.0,WeatherDisplay:10.37,2013-10-26 23:03:00,
2013-10-26 18:08:00,42.0,30.7,30.11,NW,319,2.1,3.5,64,0.00,OVC,,0.00,0.0,WeatherDisplay:10.37,2013-10-26 23:08:00,
2013-10-26 18:13:00,41.9,30.6,30.11,NNW,340,3.1,8.1,64,0.00,OVC,,0.00,0.0,WeatherDisplay:10.37,2013-10-26 23:13:00,
2013-10-26 18:18:00,41.8,30.5,30.12,NW,312,5.0,10.4,64,0.00,OVC,,0.00,0.0,WeatherDisplay:10.37,2013-10-26 23:18:00,
2013-10-26 18:23:00,41.8,30.5,30.11,WNW,294,2.7,5.8,64,0.00,OVC,,0.00,0.0,WeatherDisplay:10.37,2013-10-26 23:23:00,
2013-10-26 18:28:00,41.8,30.5,30.11,NW,322,3.0,4.0,64,0.00,OVC,,0.00,0.0,WeatherDisplay:10.37,2013-10-26 23:28:00,
2013-10-26 18:33:00,41.6,30.3,30.11,NNW,329,2.5,4.0,64,0.00,OVC,,0.00,0.0,WeatherDisplay:10.37,2013-10-26 23:33:00,
2013-10-26 18:38:00,41.7,30.8,30.11,NW,317,1.2,4.6,65,0.00,OVC,,0.00,0.0,WeatherDisplay:10.37,2013-10-26 23:38:00,
2013-10-26 18:43:00,41.6,30.7,30.11,NNW,329,1.3,3.5,65,0.00,OVC,,0.00,0.0,WeatherDisplay:10.37,2013-10-26 23:43:00,
2013-10-26 18:48:00,41.5,30.6,30.12,NW,321,3.3,6.0,65,0.00,OVC,,0.00,0.0,WeatherDisplay:10.37,2013-10-26 23:48:00,
2013-10-26 18:53:00,41.5,31.0,30.12,NNW,327,0.6,3.5,66,0.00,OVC,,0.00,0.0,WeatherDisplay:10.37,2013-10-26 23:53:00,
2013-10-26 18:58:00,41.4,30.9,30.12,NW,320,2.2,4.0,66,0.00,OVC,,0.00,0.0,WeatherDisplay:10.37,2013-10-26 23:58:00,
2013-10-26 19:03:00,41.3,30.8,30.12,NW,311,2.0,4.0,66,0.00,OVC,,0.00,0.0,WeatherDisplay:10.37,2013-10-27 00:03:00,
2013-10-26 19:08:00,41.4,30.9,30.13,NW,315,2.0,4.6,66,0.00,OVC,,0.00,0.0,WeatherDisplay:10.37,2013-10-27 00:08:00,
2013-10-26 19:13:00,41.4,30.9,30.14,NW,306,3.3,6.0,66,0.00,OVC,,0.00,0.0,WeatherDisplay:10.37,2013-10-27 00:13:00,
2013-10-26 19:18:00,41.4,30.9,30.14,WNW,301,3.3,5.0,66,0.00,OVC,,0.00,0.0,WeatherDisplay:10.37,2013-10-27 00:18:00,
2013-10-26 19:23:00,41.3,30.8,30.13,WNW,293,2.4,4.0,66,0.00,OVC,,0.00,0.0,WeatherDisplay:10.37,2013-10-27 00:23:00,
2013-10-26 19:28:00,41.1,30.6,30.14,NW,325,2.7,4.0,66,0.00,OVC,,0.00,0.0,WeatherDisplay:10.37,2013-10-27 00:28:00,
2013-10-26 19:33:00,41.2,30.7,30.13,WNW,282,5.9,10.4,66,0.00,OVC,,0.00,0.0,WeatherDisplay:10.37,2013-10-27 00:33:00,
2013-10-26 19:38:00,41.1,30.2,30.13,WNW,288,4.4,10.0,65,0.00,OVC,,0.00,0.0,WeatherDisplay:10.37,2013-10-27 00:38:00,
2013-10-26 19:43:00,41.1,30.2,30.13,NW,311,3.3,5.8,65,0.00,OVC,,0.00,0.0,WeatherDisplay:10.37,2013-10-27 00:43:00,
2013-10-26 19:48:00,41.1,30.2,30.13,NW,319,2.7,5.0,65,0.00,OVC,,0.00,0.0,WeatherDisplay:10.37,2013-10-27 00:48:00,
2013-10-26 19:53:00,41.1,30.2,30.12,WNW,285,4.3,7.0,65,0.00,OVC,,0.00,0.0,WeatherDisplay:10.37,2013-10-27 00:53:00,
2013-10-26 19:58:00,41.1,30.2,30.12,NW,311,1.9,3.5,65,0.00,OVC,,0.00,0.0,WeatherDisplay:10.37,2013-10-27 00:58:00,
2013-10-26 20:03:00,40.9,30.0,30.11,NW,319,2.0,3.5,65,0.00,OVC,,0.00,0.0,WeatherDisplay:10.37,2013-10-27 01:03:00,
2013-10-26 20:08:00,40.9,30.0,30.11,NW,306,2.1,4.0,65,0.00,OVC,,0.00,0.0,WeatherDisplay:10.37,2013-10-27 01:08:00,
2013-10-26 20:13:00,40.6,30.1,30.11,WNW,301,3.1,4.0,66,0.00,OVC,,0.00,0.0,WeatherDisplay:10.37,2013-10-27 01:13:00,
2013-10-26 20:18:00,40.6,30.1,30.11,NW,304,0.6,3.5,66,0.00,OVC,,0.00,0.0,WeatherDisplay:10.37,2013-10-27 01:18:00,
2013-10-26 20:23:00,40.3,30.2,30.11,WNW,301,2.3,4.0,67,0.00,OVC,,0.00,0.0,WeatherDisplay:10.37,2013-10-27 01:23:00,
2013-10-26 20:28:00,40.3,30.2,30.11,NW,307,0.0,3.5,67,0.00,OVC,,0.00,0.0,WeatherDisplay:10.37,2013-10-27 01:28:00,
2013-10-26 20:33:00,40.3,30.2,30.10,WNW,298,2.4,4.0,67,0.00,OVC,,0.00,0.0,WeatherDisplay:10.37,2013-10-27 01:33:00,
2013-10-26 20:38:00,40.4,30.3,30.10,NW,314,2.3,5.0,67,0.00,OVC,,0.00,0.0,WeatherDisplay:10.37,2013-10-27 01:38:00,
2013-10-26 20:43:00,40.2,30.1,30.10,WNW,301,1.2,3.5,67,0.00,OVC,,0.00,0.0,WeatherDisplay:10.37,2013-10-27 01:43:00,
2013-10-26 20:48:00,40.2,30.1,30.10,WNW,303,1.2,3.5,67,0.00,OVC,,0.00,0.0,WeatherDisplay:10.37,2013-10-27 01:48:00,
2013-10-26 20:53:00,40.2,30.5,30.10,WNW,303,0.7,3.5,68,0.00,OVC,,0.00,0.0,WeatherDisplay:10.37,2013-10-27 01:53:00,
2013-10-26 20:58:00,40.3,30.6,30.10,WNW,303,0.9,2.3,68,0.00,OVC,,0.00,0.0,WeatherDisplay:10.37,2013-10-27 01:58:00,
2013-10-26 21:03:00,40.1,30.4,30.09,NW,304,0.1,1.2,68,0.00,OVC,,0.00,0.0,WeatherDisplay:10.37,2013-10-27 02:03:00,
2013-10-26 21:08:00,40.1,30.4,30.10,NW,304,1.0,4.0,68,0.00,OVC,,0.00,0.0,WeatherDisplay:10.37,2013-10-27 02:08:00,
2013-10-26 21:13:00,39.9,30.2,30.10,NW,304,0.8,2.3,68,0.00,OVC,,0.00,0.0,WeatherDisplay:10.37,2013-10-27 02:13:00,
2013-10-26 21:18:00,39.7,30.4,30.09,NW,304,0.0,0.0,69,0.00,OVC,,0.00,0.0,WeatherDisplay:10.37,2013-10-27 02:18:00,
2013-10-26 21:23:00,39.5,30.5,30.09,NW,304,0.0,0.0,70,0.00,OVC,,0.00,0.0,WeatherDisplay:10.37,2013-10-27 02:23:00,
2013-10-26 21:28:00,39.6,30.6,30.09,NW,319,1.7,3.5,70,0.00,OVC,,0.00,0.0,WeatherDisplay:10.37,2013-10-27 02:28:00,
2013-10-26 21:33:00,39.5,30.5,30.09,NW,319,0.1,1.2,70,0.00,OVC,,0.00,0.0,WeatherDisplay:10.37,2013-10-27 02:33:00,
2013-10-26 21:38:00,39.1,30.5,30.09,NW,319,0.0,0.0,71,0.00,OVC,,0.00,0.0,WeatherDisplay:10.37,2013-10-27 02:38:00,
2013-10-26 21:43:00,38.8,30.5,30.09,NW,319,0.0,1.2,72,0.00,OVC,,0.00,0.0,WeatherDisplay:10.37,2013-10-27 02:43:00,
2013-10-26 21:48:00,38.7,30.8,30.08,NW,319,0.0,0.0,73,0.00,OVC,,0.00,0.0,WeatherDisplay:10.37,2013-10-27 02:48:00,
2013-10-26 21:53:00,38.4,30.5,30.07,NW,319,0.0,0.0,73,0.00,OVC,,0.00,0.0,WeatherDisplay:10.37,2013-10-27 02:53:00,
2013-10-26 21:58:00,37.9,30.7,30.07,NW,319,0.0,0.0,75,0.00,OVC,,0.00,0.0,WeatherDisplay:10.37,2013-10-27 02:58:00,
2013-10-26 22:03:00,37.7,30.8,30.08,NW,319,0.0,1.2,76,0.00,OVC,,0.00,0.0,WeatherDisplay:10.37,2013-10-27 03:03:00,
2013-10-26 22:08:00,37.3,30.4,30.08,NW,319,0.0,0.0,76,0.00,OVC,,0.00,0.0,WeatherDisplay:10.37,2013-10-27 03:08:00,
2013-10-26 22:13:00,37.3,30.4,30.08,NW,319,0.0,0.0,76,0.00,OVC,,0.00,0.0,WeatherDisplay:10.37,2013-10-27 03:13:00,
2013-10-26 22:18:00,37.1,30.2,30.08,NW,319,0.0,0.0,76,0.00,OVC,,0.00,0.0,WeatherDisplay:10.37,2013-10-27 03:18:00,
2013-10-26 22:23:00,36.8,30.3,30.08,NW,319,0.0,0.0,77,0.00,OVC,,0.00,0.0,WeatherDisplay:10.37,2013-10-27 03:23:00,
2013-10-26 22:28:00,36.6,30.4,30.08,NW,319,0.0,0.0,78,0.00,OVC,,0.00,0.0,WeatherDisplay:10.37,2013-10-27 03:28:00,
2013-10-26 22:33:00,36.3,30.1,30.08,NW,319,0.0,0.0,78,0.00,OVC,,0.00,0.0,WeatherDisplay:10.37,2013-10-27 03:33:00,
2013-10-26 22:38:00,35.7,29.8,30.08,NW,319,0.0,1.2,79,0.00,OVC,,0.00,0.0,WeatherDisplay:10.37,2013-10-27 03:38:00,
2013-10-26 22:43:00,35.5,30.2,30.07,NW,319,0.7,1.2,81,0.00,OVC,,0.00,0.0,WeatherDisplay:10.37,2013-10-27 03:43:00,
2013-10-26 22:48:00,35.0,30.4,30.06,NW,319,0.3,1.2,83,0.00,OVC,,0.00,0.0,WeatherDisplay:10.37,2013-10-27 03:48:00,
2013-10-26 22:53:00,34.9,30.8,30.06,NW,319,0.0,0.0,85,0.00,OVC,,0.00,0.0,WeatherDisplay:10.37,2013-10-27 03:53:00,
2013-10-26 22:58:00,34.8,30.8,30.07,NW,319,0.0,0.0,85,0.00,OVC,,0.00,0.0,WeatherDisplay:10.37,2013-10-27 03:58:00,
2013-10-26 23:01:00,34.7,30.9,30.07,NW,319,0.0,0.0,86,0.00,OVC,,0.00,0.0,WeatherDisplay:10.37,2013-10-27 04:01:00,
2013-10-26 23:02:00,34.7,30.9,30.06,NW,319,0.0,0.0,86,0.00,FEW,,0.00,0.0,WeatherDisplay:10.37,2013-10-27 04:02:00,
2013-10-26 23:04:00,34.7,30.9,30.06,NW,319,0.0,0.0,86,0.00,FEW,,0.00,0.0,WeatherDisplay:10.37,2013-10-27 04:04:00,
2013-10-26 23:05:00,34.7,30.9,30.06,NW,319,0.0,0.0,86,0.00,FEW,,0.00,0.0,WeatherDisplay:10.37,2013-10-27 04:05:00,
2013-10-26 23:06:00,34.7,30.9,30.06,NW,319,0.0,0.0,86,0.00,FEW,,0.00,0.0,WeatherDisplay:10.37,2013-10-27 04:06:00,
2013-10-26 23:07:00,34.7,30.9,30.06,NW,319,0.0,0.0,86,0.00,FEW,,0.00,0.0,WeatherDisplay:10.37,2013-10-27 04:07:00,
2013-10-26 23:12:00,34.5,30.7,30.06,NW,319,0.0,0.0,86,0.00,FEW,,0.00,0.0,WeatherDisplay:10.37,2013-10-27 04:12:00,
2013-10-26 23:17:00,34.5,30.5,30.06,NW,319,1.3,2.3,85,0.00,FEW,,0.00,0.0,WeatherDisplay:10.37,2013-10-27 04:17:00,
2013-10-26 23:22:00,34.2,29.9,30.06,WSW,251,2.3,3.5,84,0.00,FEW,,0.00,0.0,WeatherDisplay:10.37,2013-10-27 04:22:00,
2013-10-26 23:27:00,33.7,29.7,30.05,WSW,251,0.2,1.2,85,0.00,FEW,,0.00,0.0,WeatherDisplay:10.37,2013-10-27 04:27:00,
2013-10-26 23:32:00,33.4,29.9,30.05,WSW,251,0.1,1.2,87,0.00,FEW,,0.00,0.0,WeatherDisplay:10.37,2013-10-27 04:32:00,
2013-10-26 23:37:00,33.4,30.2,30.05,WSW,251,0.8,2.3,88,0.00,FEW,,0.00,0.0,WeatherDisplay:10.37,2013-10-27 04:37:00,
2013-10-26 23:42:00,33.3,29.8,30.05,WSW,251,1.0,2.3,87,0.00,FEW,,0.00,0.0,WeatherDisplay:10.37,2013-10-27 04:42:00,
2013-10-26 23:47:00,33.5,29.8,30.05,WSW,251,0.6,2.3,86,0.00,FEW,,0.00,0.0,WeatherDisplay:10.37,2013-10-27 04:47:00,
2013-10-26 23:52:00,33.5,29.2,30.05,WSW,251,0.7,3.5,84,0.00,FEW,,0.00,0.0,WeatherDisplay:10.37,2013-10-27 04:52:00,
2013-10-26 23:57:00,33.5,29.2,30.04,SSE,156,2.2,5.0,84,0.00,FEW,,0.00,0.0,WeatherDisplay:10.37,2013-10-27 04:57:00,